Home   Weather   Patras   Past weeks

Flag for Greece Past Weather in Patras, Greece — Yesterday and Last 2 Weeks

Now
50 °F

Sunny.


Feels Like: 50 °F
Forecast: 50 / 79 °F
Wind: No wind

Location: Araxos Airport

Current Time: Apr 28, 2017 at 7:48:20 am

Latest Report: Apr 28, 2017 at 7:20 am


Visibility: 10 mi

Pressure: 30.01 "Hg

Humidity: 88%

Dew Point: 46 °F

Location of PatrasLocation

Past Weather in Patras — Graph

°F

Patras Temperature Yesterday

Maximum temperature yesterday: 75 °F (at 3:20 pm)
Minimum temperature yesterday: 46 °F (at 5:50 am)
Average temperature yesterday: 63 °F

High & Low Weather Summary for the Past Weeks

 TemperatureHumidityPressure
High75 °F (Apr 27, 3:20 pm)100% (Apr 13, 6:20 am)30.18 "Hg (Apr 13, 6:20 am)
Low39 °F (Apr 23, 5:50 am)34% (Apr 21, 1:50 pm)29.80 "Hg (Apr 13, 5:20 pm)
Average60 °F71%30.01 "Hg
* Reported Apr 13 6:20 am — Apr 28 6:20 am, Patras, Weather by CustomWeather, © 2017

Note: Actual official high and low records may vary slightly from our data, if they occured in-between our weather recording intervals... More about our weather records

Advertising

Patras Weather History for the Previous 24 Hours

Scroll right to see more
 ConditionsComfort  
Time TempWeatherWind HumidityBarometerVisibility
6:20 am
Fri, Apr 28
46 °FClear.No wind93%30.01 "Hg10 mi
5:50 am46 °FClear.No wind93%30.01 "Hg10 mi
3:50 am48 °FClear.No wind94%30.04 "Hg10 mi
2:50 am50 °FClear.No wind88%30.04 "Hg10 mi
12:50 am52 °FClear.No wind94%30.07 "Hg10 mi
11:50 pm
Thu, Apr 27
54 °FClear.No wind88%30.07 "Hg10 mi
10:50 pm57 °FClear.No wind88%30.04 "Hg10 mi
9:50 pm59 °FClear.No wind77%30.04 "Hg10 mi
8:50 pm61 °FClear.No wind72%30.04 "Hg10 mi
8:20 pm64 °FSunny.No wind68%30.01 "Hg10 mi
7:50 pm68 °FSunny.No wind60%30.01 "Hg10 mi
7:20 pm70 °FSunny.No wind53%30.04 "Hg10 mi
6:50 pm72 °FSunny.3 mph44%30.04 "Hg10 mi
6:20 pm72 °FSunny.8 mph41%30.04 "Hg10 mi
5:50 pm72 °FSunny.8 mph38%30.04 "Hg10 mi
5:20 pm73 °FSunny.8 mph41%30.04 "Hg10 mi
4:50 pm73 °FSunny.10 mph44%30.04 "Hg10 mi
4:20 pm73 °FSunny.6 mph41%30.04 "Hg10 mi
3:50 pm73 °FSunny.7 mph41%30.04 "Hg10 mi
3:20 pm75 °FSunny.8 mph34%30.04 "Hg10 mi
2:50 pm73 °FSunny.8 mph38%30.04 "Hg10 mi
2:20 pm73 °FSunny.5 mph36%30.04 "Hg10 mi
1:50 pm73 °FSunny.5 mph38%30.07 "Hg10 mi
12:50 pm73 °FSunny.3 mph47%30.07 "Hg10 mi
12:20 pm73 °FSunny.No wind41%30.07 "Hg10 mi
11:50 am72 °FSunny.No wind41%30.07 "Hg10 mi
11:20 am70 °FSunny.No wind50%30.07 "Hg10 mi
10:50 am68 °FSunny.No wind53%30.07 "Hg10 mi
10:20 am66 °FSunny.No wind60%30.07 "Hg10 mi
9:50 am64 °FSunny.No wind68%30.07 "Hg10 mi
9:20 am63 °FSunny.3 mph73%30.07 "Hg10 mi
8:50 am61 °FSunny.3 mph77%30.07 "Hg10 mi
8:20 am55 °FSunny.No wind77%30.07 "Hg10 mi
7:50 am50 °FSunny.No wind88%30.07 "Hg10 mi
7:20 am48 °FSunny.No wind87%30.07 "Hg10 mi
Weather by CustomWeather, © 2017

See weather overviewHow to use our weather pages